Volver al catálogo

STARLINK-5994

ActivoComunicacionesVLEO
NORAD 56457·PAYLOAD·🇺🇸 United States

Lanzado May 10, 2023 desde Vandenberg Space Force Base

Loading…

Próximos Pases (próximas 24 horas)

TLE

ActualizadoSource: CelesTrak SupGP

Época: Sep 14, 2026, 21:34 UTC

1 56457C 23064K   26257.89909722 -.00013093  00000+0 -10976-2 0  2579
2 56457  70.0029  27.4099 0003208 270.4063 222.1905 14.98323005    10

Sigue STARLINK-5994 en tiempo real con AllMySat

Download on the App Store